DELTA 1 DEB

Satellite information

Favourite Embed

Satellite Type and Status

DEBRISIN ORBIT

Key statistics

Satellite DELTA 1 DEB at a glance.

Uptime

19342

Days in orbit

Revolutions

≈ 14.6

Per day

Orbit

SSO

Sun Synchronous Orbit

Inclination

98.6

Latest

Satellite identification and parameters

Extended collection of information and parameters for DELTA 1 DEB.

Object identification

Identified? True

Debris? True

Object name: DELTA 1 DEB

International designator: 1972-058JM

Object number (NORAD): 19834

Object ID (CCSDS): 19834

Country: UNITED STATES OF AMERICA (US)

Current information (Y/N): Y

RCS size: SMALL

Orbital parameters

Period: 98.481 minutes

Inclination: 98.5586 deg

SMA: 7064.166 km

Apoapsis: 777.362 km

Periapsis: 594.701 km

RAAN: 314.5679 deg

Eccentricy: 0.0129287

Argument of periapsis: 43.3754 deg

Mean anomaly: 317.7534 deg

Mean motion: 14.62215544 rev/day

Mean motion (dot): 0.00000655 rev/day2

B* drag term: 0.00012562 1/REarth

Two-line elements (TLE)

Creation date: July 6, 2025, 6:05 p.m.

Reference frame: TEME

Reference center: EARTH

Epoch: July 6, 2025, 3:14 a.m. UTC

TLE line 0: 0 DELTA 1 DEB

TLE line 1: 1 19834U 72058JM 25187.13505877 .00000655 00000-0 12562-3 0 9991

TLE line 2: 2 19834 98.5586 314.5679 0129287 43.3754 317.7534 14.62215544889445

Live tracking on map

Real-time ground track for satellite DELTA 1 DEB.

In-orbit conjunctions

A list of the most updated potential collisions computed for object DELTA 1 DEB.

Target Orbit TCA Probability of collision Miss distance Type
COSMOS 2251 DEB LEO 2025-05-27 07:05:10 0.0001039556 748.0 (m) DEBRIS
COSMOS 1275 DEB LEO 2025-04-10 04:15:11 0.0002282532 47.0 (m) DEBRIS

Associated space launch

Earth observation satellite

DELTA 1 DEB was lifted into orbit during the mission ‘Delta 0900 | Landsat 1’, on board a Delta 0900 space rocket.

The launch took place on July 23, 1972, 6:06 p.m. from Space Launch Complex 2W.

For more information about the launch, click the button.

Launch to space Delta 0900 | Landsat 1
Delta 0900 | Landsat 1

Agency: N/A

Status: Launch Successful

Launch date: July 23, 1972, 6:06 p.m. UTC

Rocket: Delta 0900

Launch pad: Space Launch Complex 2W

Location: Vandenberg SFB, CA, USA

...

Latest news about this satellite

There are no fresh news available about this satellite. Check back as we update our databases every day.


Newsletter sign-up

Weekly statistics, charts and insights to help you stay on top of the space industry.